User: anonymous   Login
Location: Hepcat Sky Observatory
(29.9800°N, 95.6500°W)
Time: 03:28:00
(UTC-05:00)
Language:

Cosmos 2151 Rocket - Orbit

View from above orbital plane
View from above orbital plane
View from above satellite
View from above satellite

Ground track
Ground track

The orbit data is extracted from the following two-line orbital elements,

1 21423U 91042B   15089.83714450  .00000628  00000-0  80847-4 0  9990
2 21423 082.4970 357.6511 0018410 025.7944 334.4182 14.79454266282901
Epoch (UTC): 30 March 2015 20:05:29
Eccentricity: 0.0018410
inclination: 82.4970°
perigee height: 618 km
apogee height: 644 km
right ascension of ascending node: 357.6511°
argument of perigee: 25.7944°
revolutions per day: 14.79454266
mean anomaly at epoch: 334.4182°
orbit number at epoch: 28290

The dashed part of the orbit path shows where the satellite is in the earth's shadow,  

DLR